COSMOS 252 DEB, 9973

Orbit data source: Space-Track

COSMOS 252 DEB, 9973 is space debris in LEO originally from a launch on Fri, 01 Nov 1968 UTC launched from the Tyuratam Missile And Space Complex (TTMTR). Debris objects in space refer to the collection of defunct objects orbiting the Earth. Examples of debris include non-operational satellites, rocket bodies, and fragments generated from explosions, collisions, or faulty payload assembly.

Loading next visibility...
Identifier
9973, 1968-097DV
Orbit
LEO
Country
Flag of CISCIS
Related business
Manufacturer
Unknown
Mission
Spacecraft
Bus & Motor
Unknown
Mass
Unknown
Launch date (UTC)
1968-11-01 (58 years ago)
Launch vehicle
Unknown
Launch site
Tyuratam Missile And Space Complex (TTMTR)
Object type
Payload
Rocket body
Debris
Shape & HBR
Unknown shape, 0.1 m
Radar Cross Section
Small (<0.1 m²)

Expand to show TLE details & history
Last TLE update: 17 hours ago

TLE from 17 hours ago
0 COSMOS 252 DEB
1  9973U 68097DV  26138.33780534  .00000666  00000-0  26765-3 0  9998
2  9973  62.4048 122.7081 0563174 242.9126 111.3395 13.73347761 26695
Epoch: 2026-05-18T08:06Z
TLE epoch observation values (Epoch: 2026-05-18T08:06:26.381Z)
Latitude
-0.00007°
Longitude
125.07064°
Altitude
1,159.864 km
Speed
7.189 km/s
True Right ascension
08h 10m 49s
True Declination
0° 00' 00"
Sunlit
Object was in daylight at epoch
Visualization orbit readout
Latitude
Unknown
Longitude
Unknown
Altitude
Unknown
Speed
Unknown
Apparent Right ascension
Unknown
Apparent Declination
Unknown
Sunlit
N/A
Visualization observer readout
Local Sidereal Time
09:38:09
Azimuth
Unknown
Elevation
Unknown
Doppler factor
Unknown
Orbital elements
Apogee altitude
1,401.269 km
Perigee altitude
571.753 km
Semi-major axis
7,364.648 km
Eccentricity
0.05632
Inclination
62.4048°
RAAN
122.7081°
Arg. of periapsis
242.9126°
True anomaly
117.19012°
Mean anomaly
111.3395°
Eccentric anomaly
114.28081°
Mean motion
3.43412 °/min
Orbital period
104.83 mins
BSTAR
0.00026765
Loading maneuver chart data...
Computing Atmospheric mass density...

Documentation

Showing up to 5 results
|